RH
96 99 90 95 90 99 98 99 99 100 100 99 100 92 80 62 58 62 54 56 47 56 58 61 66 68 76 74 72 65 67 60 90 97 98 83 83 93 82 78 89 76 68
96 98 99 91 98 100 99 100 100 100 92 82 77 67 56 48 53 54 32 29 30 37 38 57 70 79 88 83 84 79 72 64 74 77 89 97 76 73 83 78 69 85 78
98 95 99 97 99 97 99 100 83 74 70 70 69 69 61 59 52 27 15 14 17 40 40 44 50 56 84 96 95 91 94 83 73 79 86 84 88 73 69 78 75 55 82
98 94 98 99 98 92 92 84 70 66 54 41 33 32 37 31 11 8 9 10 13 11 12 23 39 60 67 82 97 88 91 99 94 90 92 84 88 88 75 74 72 60 89
97 97 96 99 100 98 100 97 88 53 28 17 12 9 8 7 8 9 10 10 8 8 9 13 21 60 72 61 75 76 72 72 88 94 94 97 91 83 66 72 79 60 92
96 94 95 96 86 52 53 76 92 34 22 19 10 9 8 8 8 6 6 5 5 4 5 6 10 20 48 62 64 85 84 92 99 99 98 96 88 99 89 69 66 60 87
95 96 89 53 50 45 44 42 35 32 24 16 14 13 11 9 8 8 7 8 7 6 4 7 10 9 12 63 88 88 82 95 80 99 97 92 96 71 99 84 58 72 93
56 82 93 94 76 75 66 56 47 35 39 23 20 16 14 18 18 10 9 9 8 7 5 8 12 10 10 33 40 89 97 89 94 95 99 91 88 87 92 82 67 70 83
49 49 45 42 65 78 89 77 66 63 63 31 23 25 28 24 20 17 12 13 10 9 8 5 6 8 12 9 12 18 51 94 78 92 98 90 94 93 90 82 63 73 78
45 41 40 42 43 42 40 39 36 39 65 75 46 37 32 19 18 21 18 15 12 10 7 10 6 5 7 16 18 16 26 49 78 82 82 100 99 100 94 69 66 64 98
27 29 36 37 34 34 36 36 34 31 30 26 22 20 18 18 16 14 12 14 15 14 12 9 9 7 6 12 24 30 44 46 98 95 78 81 91 98 94 75 72 74 85
26 25 25 25 24 29 31 27 26 30 30 28 26 24 23 21 18 17 17 16 13 11 12 13 12 10 9 9 16 30 39 52 56 92 94 96 94 100 100 100 96 99 97
24 23 23 22 21 21 18 19 25 24 20 22 24 24 24 24 23 22 20 19 17 14 12 11 10 13 13 11 10 18 32 47 75 92 99 95 95 99 100 90 97 100 98
26 25 22 20 21 22 23 22 19 20 24 24 22 22 23 24 24 23 23 22 22 20 18 17 15 13 10 10 13 10 25 39 72 100 100 95 100 99 94 100 100 91 100
36 32 28 27 27 28 28 28 27 23 24 23 21 20 19 21 24 27 27 28 28 25 22 23 23 19 17 13 10 13 12 27 47 86 95 98 100 94 96 100 99 100 100
40 39 35 31 29 33 38 40 42 40 38 39 38 35 34 33 34 34 34 36 40 41 36 32 30 30 26 24 20 16 16 17 29 58 86 91 97 88 99 99 99 100 100
42 43 42 40 40 45 48 47 46 52 51 50 52 50 47 42 41 40 42 44 49 58 64 61 56 44 37 34 34 26 21 22 32 82 100 100 99 97 100 94 100 100 100
44 45 44 46 50 56 60 61 60 59 54 53 55 52 52 48 45 43 44 49 54 61 68 74 80 74 59 48 47 43 30 30 35 64 96 99 99 99 100 99 99 100 100
40 46 51 54 57 60 67 72 71 68 65 62 59 57 58 58 54 47 46 47 52 60 73 81 87 86 78 71 65 61 63 46 51 51 91 99 100 100 99 99 99 99 99
44 50 59 67 72 77 80 80 78 75 72 68 66 66 65 62 54 50 49 51 57 62 70 80 90 93 93 93 87 87 84 78 91 67 75 90 99 99 100 100 99 99 99
49 58 67 76 83 87 86 86 85 83 82 81 79 75 70 63 58 57 57 60 67 74 78 83 89 94 98 100 100 100 100 97 100 93 99 100 99 98 98 98 98 98 98
58 68 74 80 86 90 90 90 90 89 88 87 84 79 74 70 67 66 66 68 73 82 90 95 99 100 100 100 98 97 99 100 100 100 100 100 100 98 97 97 98 97 97
68 77 83 88 92 93 93 93 94 95 93 90 86 83 78 74 75 76 75 77 82 89 94 99 100 98 98 97 97 98 98 98 99 100 100 100 100 100 96 96 96 96 96
77 84 89 92 96 96 94 95 96 97 96 94 90 86 82 79 79 80 82 85 91 94 97 99 99 98 97 96 96 96 96 97 98 97 98 98 97 96 96 96 95 95 95
82 90 95 97 99 100 99 99 99 99 98 97 94 92 89 87 88 89 88 88 92 97 98 99 98 98 98 98 97 96 96 97 97 97 98 97 96 97 97 96 96 96 97
88 94 98 100 100 100 100 99 100 99 99 98 97 96 96 94 96 97 95 94 94 96 99 100 98 97 98 98 98 98 99 99 98 98 98 98 98 98 97 96 96 97 96
Wind_Speed
32 29 38 32 44 45 45 46 47 48 40 38 33 34 36 38 42 32 33 25 34 36 37 38 38 35 37 38 37 41 42 41 39 40 38 40 34 30 27 28 32 33 35
26 22 37 26 32 38 46 43 39 32 29 28 31 29 32 31 31 30 33 33 35 37 36 38 38 36 36 35 35 39 41 41 41 39 40 40 42 35 33 34 32 36 35
22 23 20 24 31 15 21 31 28 28 27 28 27 31 33 31 33 33 34 32 30 29 33 37 38 38 37 36 35 36 36 36 40 41 43 44 43 39 35 34 32 32 34
14 15 23 23 23 15 15 21 19 21 22 22 23 26 28 29 32 31 29 28 28 30 31 33 36 36 38 38 37 38 40 37 39 40 44 46 45 41 38 36 34 33 32
11 4 6 12 16 22 24 21 24 20 17 19 19 21 24 27 28 27 28 30 32 35 37 35 36 35 36 41 39 37 37 41 44 43 44 43 46 41 33 37 35 33 34
9 11 11 7 3 2 7 9 10 12 15 17 18 20 22 25 25 28 28 31 36 37 38 40 37 34 40 42 41 37 40 42 39 42 48 48 48 42 41 39 37 32 36
18 7 7 2 2 4 5 8 14 15 17 20 20 21 22 25 24 26 28 31 31 32 36 37 34 37 33 39 40 41 44 43 40 44 46 48 42 42 41 38 37 35 38
10 12 12 9 10 10 8 7 9 9 17 22 18 21 24 22 22 24 26 29 30 30 31 33 34 34 35 36 40 41 40 39 45 41 41 42 45 48 43 39 38 37 38
13 11 8 7 10 16 19 22 26 28 21 19 16 20 22 25 25 27 28 29 31 30 29 31 32 32 33 37 42 42 47 45 45 42 42 43 44 42 40 40 41 40 39
18 15 12 11 11 11 11 13 16 20 29 33 31 31 25 32 31 34 31 31 32 32 32 29 29 30 31 34 39 40 42 39 39 49 52 42 31 41 42 39 41 36 40
21 20 19 17 15 14 14 14 15 16 18 19 20 22 28 28 29 32 35 34 35 33 33 33 31 31 31 32 34 38 38 43 43 40 35 39 43 38 39 38 37 38 34
21 21 21 21 20 20 18 18 18 19 20 20 20 22 24 26 28 30 33 35 36 38 35 35 35 34 34 33 36 36 37 36 47 43 43 45 40 44 38 37 39 41 38
21 21 21 22 23 23 22 22 22 23 24 25 25 26 27 29 32 33 36 38 39 39 39 38 38 37 37 36 36 38 37 37 38 45 46 53 48 47 44 45 41 43 37
22 23 22 22 23 25 25 25 25 24 24 25 27 29 30 31 34 39 40 42 42 43 43 42 41 40 39 39 38 37 38 35 37 40 47 50 46 44 44 44 43 39 44
24 24 25 26 26 26 28 29 29 30 30 30 31 33 34 35 37 40 42 43 46 46 46 45 43 43 42 41 41 40 39 39 38 42 46 48 40 48 49 50 42 46 42
24 24 25 26 27 27 27 26 29 30 32 33 33 34 35 38 41 42 43 44 45 45 45 45 45 44 44 42 41 42 41 40 38 42 43 51 48 52 44 42 47 48 37
23 23 23 24 25 26 25 25 24 25 29 31 32 33 33 35 39 40 40 41 42 42 41 41 42 43 43 43 41 41 42 42 38 39 42 47 51 53 44 47 46 49 41
23 23 22 23 24 24 25 25 24 25 25 27 30 32 32 32 34 37 37 38 37 38 39 39 38 40 41 42 42 41 42 42 43 40 45 43 47 47 48 52 50 42 41
22 22 20 20 21 22 23 24 24 24 25 26 27 28 31 32 32 34 34 34 33 35 35 36 37 37 38 39 40 40 41 41 42 44 42 48 45 43 41 42 43 42 42
24 24 23 21 19 20 22 22 23 23 24 25 26 26 27 29 30 31 31 30 29 29 30 31 32 33 33 34 36 37 38 39 39 41 42 41 42 43 43 43 43 41 43
24 24 23 22 21 20 20 21 21 22 22 23 24 26 27 28 30 31 31 28 25 22 23 26 27 29 30 31 32 33 33 35 35 38 40 39 40 38 42 43 42 40 40
23 22 22 21 20 20 19 19 20 20 20 21 20 21 23 24 25 26 27 25 23 21 20 20 22 23 25 27 29 30 30 29 31 31 33 36 35 37 38 37 38 38 37
23 22 21 20 19 19 19 18 18 18 18 18 18 18 18 19 19 20 21 21 22 21 18 16 16 16 17 20 24 24 24 25 26 27 29 29 28 28 30 29 30 31 30
23 22 20 19 19 18 17 17 16 16 16 17 17 16 16 16 16 17 18 20 21 21 21 18 11 6 5 8 11 13 15 15 16 17 19 19 20 22 23 22 23 23 22
22 21 20 19 17 16 16 15 14 14 14 14 15 15 14 14 14 16 17 17 19 20 20 19 17 15 11 8 8 7 10 12 13 13 12 12 13 15 15 17 19 21 23
21 20 19 17 16 15 14 14 14 13 12 12 13 13 12 12 12 13 14 15 15 16 16 15 14 14 13 10 10 11 12 12 13 14 14 14 16 17 19 21 22 23 23
Wind_Direction
272 246 254 267 229 213 218 221 226 226 219 221 231 236 259 264 263 253 250 257 255 252 254 255 253 251 255 254 249 247 248 248 247 255 254 259 253 253 257 264 262 265 261
288 251 237 258 226 203 207 210 212 210 217 228 233 234 238 230 243 253 263 257 256 253 251 254 254 251 252 251 251 249 248 247 248 250 251 257 260 257 258 263 265 265 262
295 256 216 235 232 213 177 192 200 207 210 218 229 238 238 247 253 256 254 250 250 250 248 250 251 252 253 251 251 252 249 247 246 247 250 252 255 258 255 259 267 269 254
298 283 234 207 225 248 185 183 193 208 220 225 228 237 241 248 248 248 251 253 256 257 258 255 248 250 248 252 250 251 251 245 247 247 246 251 252 255 258 263 260 262 262
347 345 276 214 225 233 223 219 202 198 220 227 226 231 237 241 248 252 255 258 260 262 262 259 255 248 252 247 251 251 254 254 251 249 246 248 251 252 254 268 260 258 255
350 13 349 22 330 272 271 284 248 250 234 237 236 236 235 242 248 254 261 264 260 259 260 261 260 256 251 249 249 247 250 248 251 253 248 245 247 252 254 260 260 256 254
346 355 356 349 279 278 262 258 249 258 246 241 239 243 247 249 254 259 263 268 266 262 261 261 260 260 259 249 253 250 247 249 246 257 249 244 249 248 260 255 257 258 254
332 334 330 306 309 306 311 294 287 260 245 255 253 250 253 260 268 269 264 267 269 265 264 263 264 262 260 256 254 253 255 246 245 247 251 248 243 250 252 251 253 254 253
350 340 324 295 278 270 270 273 273 276 282 290 275 274 271 277 270 273 272 269 270 268 264 262 264 264 263 261 255 256 250 249 252 248 243 246 253 253 247 251 251 257 254
354 347 339 332 321 304 290 276 268 265 256 262 275 271 276 270 268 271 268 265 264 266 269 267 265 265 261 262 261 259 253 252 245 253 257 255 250 246 250 250 251 254 257
345 347 347 345 336 323 314 301 289 283 279 272 269 266 263 270 270 267 268 268 266 262 261 263 263 264 265 260 262 259 260 245 250 246 254 250 250 254 252 248 253 256 255
331 334 334 336 335 332 326 315 304 296 288 282 276 273 275 275 274 275 274 272 270 270 266 264 263 263 263 262 258 258 262 262 252 252 241 241 242 250 248 251 260 247 255
321 320 321 322 321 320 318 317 314 308 301 292 286 282 281 282 283 282 279 276 273 270 269 267 266 263 263 264 263 257 260 256 258 248 246 244 249 245 240 253 250 255 253
310 312 314 314 313 314 311 310 309 307 305 300 295 291 289 287 287 287 285 280 276 274 271 269 267 265 262 262 262 262 255 258 261 242 247 250 236 243 249 243 253 253 249
309 311 312 314 316 314 313 312 312 312 312 311 308 304 299 295 292 289 285 280 277 272 269 269 267 267 266 262 260 258 258 253 255 252 253 246 254 251 249 248 245 250 250
315 311 309 310 311 312 312 311 312 313 314 314 312 307 304 301 297 294 292 287 281 274 268 264 264 264 262 262 259 257 256 253 256 250 250 251 249 258 253 253 240 245 250
320 316 314 311 310 309 307 305 303 305 309 309 309 307 306 305 304 300 296 291 284 281 275 266 260 258 259 259 258 254 252 254 250 250 250 248 247 252 253 257 253 250 242
318 314 311 310 309 309 309 308 306 306 305 306 308 308 311 311 309 306 303 297 289 281 275 270 263 257 255 256 256 254 251 249 250 249 253 249 247 249 246 249 245 241 252
320 315 310 308 306 306 306 308 311 312 312 310 310 312 316 320 319 316 311 303 292 283 275 268 265 261 257 255 255 255 252 248 246 248 245 247 246 249 249 244 240 242 249
325 321 315 313 312 312 314 316 316 317 316 315 316 320 323 324 324 322 317 310 299 288 277 271 265 262 260 255 253 253 252 249 246 247 249 252 247 241 243 247 242 242 238
322 318 315 315 316 318 318 320 322 324 325 326 327 329 331 332 332 331 328 323 315 305 290 278 271 263 259 255 252 250 251 250 247 248 243 244 251 255 246 242 238 234 232
318 316 313 313 314 316 319 321 324 326 328 327 329 333 335 338 339 341 338 339 335 327 313 297 283 267 257 250 246 244 245 245 244 245 247 251 251 254 249 241 234 229 223
315 313 311 309 310 312 315 318 322 326 329 329 330 335 339 345 350 354 355 359 1 359 348 327 303 282 262 247 236 233 236 236 235 239 242 244 243 241 237 231 227 221 214
312 310 308 307 308 309 312 315 320 327 332 332 332 335 340 348 358 5 9 17 20 20 18 15 4 331 272 241 228 211 206 212 218 222 225 223 221 216 213 209 208 207 208
309 308 306 305 305 307 309 312 317 323 328 329 330 333 341 353 5 12 14 20 22 21 23 26 36 43 52 81 108 130 139 146 157 159 162 174 184 188 190 191 192 193 195
311 308 305 302 301 301 303 306 310 315 321 325 327 328 338 349 3 13 17 21 24 23 21 24 29 37 46 56 80 96 105 115 131 143 153 164 177 180 180 183 185 183 180